Flag for U.S.A. Weather past 2 weeks in Honolulu, Hawaii, U.S.A.

Now
84 °F

Broken clouds.


Feels Like: 88 °F
Forecast: 72 / 85 °F
Wind: 8 mph from South

Location: Honolulu International Airport

Current Time: Aug 4, 2015 at 11:58:37 AM

Latest Report: Aug 4, 2015 at 10:53 AM


Visibility: 10 mi

Pressure: 29.86 "Hg

Humidity: 63%

Dew point: 70 °F

Location of HonoluluLocation

Historic Weather in Honolulu — Graph

°F

Honolulu temperature yesterday

Maximum temperature yesterday: 90 °F (at 12:53 PM)
Minimum temperature yesterday: 78 °F (at 2:53 AM)
Average temperature yesterday: 83 °F

Past Weeks' High & Low Weather Summary

 TemperatureHumidityPressure
High91 °F (Jul 30, 12:53 PM)94% (Jul 22, 6:53 AM)30.02 "Hg (Jul 22, 6:53 AM)
Low73 °F (Aug 4, 5:53 AM)39% (Aug 3, 12:53 PM)29.83 "Hg (Aug 3, 4:53 PM)
Average83 °F64%29.94 "Hg
* Reported Jul 20 9:53 AM — Aug 4 9:53 AM, Honolulu, Weather by CustomWeather, © 2015

Note: Actual official high and low records may vary slightly from our data, if they occured in-between our weather recording intervals... More about our weather records

Advertising

Honolulu weather history for previous 24 hours

 ConditionsComfort  
Time TempWeatherWind HumidityBarometerVisibility
9:53 AM
Tue, Aug 4
84 °FBroken clouds.7 mph59%29.87 "Hg10 mi
8:53 AM81 °FBroken clouds.3 mph62%29.88 "Hg10 mi
7:53 AM77 °FScattered clouds.3 mph69%29.88 "Hg10 mi
6:53 AM74 °FScattered clouds.3 mph74%29.87 "Hg10 mi
5:53 AM73 °FPassing clouds.3 mph79%29.85 "Hg10 mi
4:53 AM74 °FPassing clouds.6 mph79%29.85 "Hg10 mi
3:53 AM75 °FPassing clouds.7 mph79%29.85 "Hg10 mi
2:53 AM75 °FPassing clouds.6 mph82%29.85 "Hg10 mi
1:53 AM76 °FPassing clouds.8 mph77%29.87 "Hg10 mi
12:53 AM77 °FPassing clouds.6 mph74%29.88 "Hg10 mi
11:53 PM
Mon, Aug 3
79 °FPassing clouds.No wind72%29.89 "Hg10 mi
10:53 PM79 °FPassing clouds.3 mph72%29.90 "Hg10 mi
9:53 PM80 °FPassing clouds.5 mph69%29.90 "Hg10 mi
8:53 PM81 °FPassing clouds.5 mph62%29.89 "Hg10 mi
7:53 PM81 °FPassing clouds.9 mph65%29.87 "Hg10 mi
6:53 PM82 °FScattered clouds.8 mph63%29.85 "Hg10 mi
5:53 PM85 °FScattered clouds.12 mph55%29.83 "Hg10 mi
4:53 PM87 °FScattered clouds.17 mph50%29.83 "Hg10 mi
3:53 PM88 °FScattered clouds.17 mph46%29.83 "Hg10 mi
2:53 PM90 °FScattered clouds.17 mph41%29.84 "Hg10 mi
1:53 PM90 °FScattered clouds.15 mph45%29.85 "Hg10 mi
12:53 PM90 °FScattered clouds.20 mph39%29.87 "Hg10 mi
11:53 AM89 °FScattered clouds.21 mph46%29.88 "Hg10 mi
Weather by CustomWeather, © 2015

See weather overviewHow to use our weather pages